Regional Weather Roundup
Issued by NWS

Home | Current Version | Previous Version | Graphics & Text | Print | Product List | Glossary On
Versions: 1 2 3 4 5 6 7 8 9 10 11 12 13 14 15 16 17 18 19 20 21 22 23 24 25 26 27 28 29 30 31 32 33 34 35 36 37 38 39 40 41 42 43 44 45 46 47 48 49 50
000
ASUS43 KFSD 120702
RWRSD

WEATHER ROUNDUP FOR SOUTH DAKOTA
NATIONAL WEATHER SERVICE SIOUX FALLS SD
200 AM CDT SAT JUL 12 2014

NOTE: "FAIR" INDICATES FEW OR NO CLOUDS BELOW 12,000 FEET WITH NO
SIGNIFICANT WEATHER AND/OR OBSTRUCTIONS TO VISIBILITY.


SDZ001>005-009-010-012>017-120800-
NORTHWEST AND NORTH CENTRAL SOUTH DAKOTA

CITY           SKY/WX    TMP DP  RH WIND       PRES   REMARKS
BUFFALO          N/A     65  59  81 N16       30.08R
FAITH            N/A     65  59  81 NE8       30.11R
MOBRIDGE       CLOUDY    70  58  65 NE9       30.04S
$$

SDZ012>016-024>037-041>051-057-063-072>074-120800-
SOUTHWEST AND SOUTH CENTRAL SOUTH DAKOTA

CITY           SKY/WX    TMP DP  RH WIND       PRES   REMARKS
RAPID CTY ARPT CLOUDY    67  57  70 SW5       30.12F
PIERRE         CLOUDY    74  68  81 NE9       30.00S
CUSTER         CLOUDY    58  55  90 CALM      30.26F
ELLSWORTH AFB  CLOUDY    69  58  68 S3        30.12R
PHILIP         LGT RAIN  67  64  90 SW8       30.05F
PINE RIDGE     CLOUDY    64  58  80 NE6       30.12F
WINNER         PTSUNNY   72  67  84 W5        30.03F
$$

SDZ004>011-016>023-039-040-120800-
NORTHEAST SOUTH DAKOTA

CITY           SKY/WX    TMP DP  RH WIND       PRES   REMARKS
ABERDEEN       CLOUDY    68  60  75 NE7       30.03S
WATERTOWN      CLOUDY    70  66  87 N5        30.03S
SISSETON         N/A     68  63  84 N7        30.02S
$$

SDZ017-020-022-023-036>040-048>070-120800-
SOUTHEAST SOUTH DAKOTA

CITY           SKY/WX    TMP DP  RH WIND       PRES   REMARKS
SIOUX FALLS    CLOUDY    73  71  93 S8        30.00S FOG
HURON          LGT RAIN  75  70  84 E3        29.97F
CHAMBERLAIN    CLOUDY    73  66  79 NW7       30.02R
MITCHELL       CLOUDY    76  74  93 S3        30.00R
YANKTON        CLOUDY    72  68  88 S8        30.04R
$$

ABBREVIATIONS USED IN REMARKS
   TC - TEMPERATURE IN CELSIUS
  WCI - WIND CHILL INDEX
   HX - HEAT INDEX
  VSB - VISIBILITY




USA.gov is the U.S. government's official web portal to all federal, state and local government web resources and services.